This demonstration page uses our WeatherBlox Daily Observations layout. Learn more.

Left ArrowRight Arrow

Hourly Observations for January 4, 2022

Temp ( °F °C ) Dew Point ( °F °C ) Humidity (%) Winds ( mph kmh ) Pressure ( in mb ) Visibility ( mi km ) Precip ( " mm )
12:54 am 00:54 Clear 34 1.1 23 -5 64 64 S 10 17 29.96 1014 10 16 0.00 0.00
1:54 am 01:54 Clear 33 0.6 23 -5 66 66 S 14 22 29.93 1013 10 16 0.00 0.00
2:54 am 02:54 Clear 33 0.6 23 -5 66 66 S 16 26 29.88 1012 10 16 0.00 0.00
3:54 am 03:54 Clear 33 0.6 22 -5.6 64 64 S 18 30 29.84 1010 10 16 0.00 0.00
4:54 am 04:54 Clear 30 -1.1 22 -5.6 72 72 S 12 19 29.80 1009 10 16 0.00 0.00
5:54 am 05:54 Clear 33 0.6 22 -5.6 64 64 S 14 22 29.78 1009 10 16 0.00 0.00
6:54 am 06:54 Clear 33 0.6 22 -5.6 64 64 S 13 20 29.75 1008 10 16 0.00 0.00
7:54 am 07:54 Sunny 32 0 22 -5.6 66 66 S 13 20 29.70 1006 10 16 0.00 0.00
8:54 am 08:54 Sunny 34 1.1 22 -5.6 61 61 S 10 17 29.67 1005 10 16 0.00 0.00
9:54 am 09:54 Sunny 36 2.2 22 -5.6 57 57 SSW 13 20 29.68 1005 10 16 0.00 0.00
10:54 am 10:54 Sunny 37 2.8 23 -5 57 57 SSW 20 31 29.66 1004 10 16 0.00 0.00
11:54 am 11:54 Sunny 38 3.3 23 -5 55 55 SW 18 30 29.60 1003 10 16 0.00 0.00
12:54 pm 12:54 Sunny 41 5 25 -3.9 53 53 SW 14 22 29.54 1000 10 16 0.00 0.00
1:54 pm 13:54 Sunny 43 6.1 27 -2.8 53 53 SSW 15 24 29.50 999 10 16 0.00 0.00
2:54 pm 14:54 Sunny 45 7.2 28 -2.2 52 52 SW 15 24 29.50 999 10 16 0.00 0.00
3:54 pm 15:54 Sunny 47 8.3 30 -1.1 52 52 SW 12 19 29.52 1000 10 16 0.00 0.00
4:54 pm 16:54 Sunny 46 7.8 30 -1.1 54 54 W 13 20 29.55 1001 10 16 0.00 0.00
5:54 pm 17:54 Clear 45 7.2 21 -6.1 39 39 NW 25 41 29.65 1004 10 16 0.00 0.00
6:54 pm 18:54 Clear 35 1.7 20 -6.7 54 54 NNW 30 48 29.76 1008 10 16 0.00 0.00
7:54 pm 19:54 Mostly Cloudy 28 -2.2 15 -9.4 58 58 NNW 30 48 29.86 1011 10 16 0.00 0.00
8:54 pm 20:54 Mostly Cloudy 26 -3.3 11 -11.7 53 53 NW 35 56 29.92 1013 10 16 0.00 0.00
9:54 pm 21:54 Clear 21 -6.1 5 -15 50 50 NNW 28 44 29.98 1015 10 16 0.00 0.00
10:54 pm 22:54 Clear 18 -7.8 3 -16.1 52 52 NNW 18 30 30.02 1017 10 16 0.00 0.00
11:54 pm 23:54 Clear 16 -8.9 2 -16.7 54 54 NW 26 43 30.07 1018 10 16 0.00 0.00

Powered by AerisWeather